Wetbulb
74.16 73.02 71.77 69.09 60.42 59.97 55.65 56.75 61.74 60.39 60.98 64.06 64.16 61.54 60.26 61.69 60.35 59.02 68.81 70.44 71.72 72.36 74.19 74.97 76.88 76.15 76.08 76.42 76.28 76.41 75.65 75.76 76.66 76.00 75.62 75.64 75.06 74.62 75.06 75.78 76.17 76.51 76.67 76.93 76.90 77.04 76.85 77.05 76.86
73.29 70.79 70.96 66.83 58.15 54.29 56.10 60.68 60.72 61.94 64.15 64.78 64.82 63.35 63.42 61.35 66.27 65.38 66.70 70.92 72.31 73.12 74.43 75.10 76.86 76.53 76.24 76.63 76.34 76.24 76.00 76.12 76.00 75.56 76.14 75.80 74.98 75.70 75.47 74.88 75.91 76.22 76.50 76.76 76.79 76.53 76.48 76.57 76.81
71.93 71.96 66.83 61.28 56.73 55.12 55.16 60.49 62.97 63.50 64.82 64.82 64.96 66.87 65.66 63.07 65.30 66.53 70.18 71.50 72.96 73.95 75.13 75.73 76.45 76.61 76.46 76.59 76.75 76.27 76.15 75.84 75.84 75.60 75.71 75.74 75.45 74.88 75.67 75.65 75.59 75.61 76.30 76.38 76.55 76.23 76.24 76.18 76.01
70.25 69.63 65.60 59.00 55.19 58.56 58.94 61.89 63.06 63.09 65.96 67.38 66.13 62.57 65.72 68.03 66.36 69.47 70.80 71.90 72.55 74.16 74.80 76.16 76.47 76.51 76.42 76.77 76.71 76.52 76.01 75.79 76.09 75.72 75.36 75.61 75.38 75.39 75.65 75.30 75.78 75.73 75.80 76.10 75.84 76.01 76.18 75.78 76.15
70.20 67.13 59.86 56.88 56.01 59.41 62.27 63.68 63.53 63.38 64.56 64.80 65.95 61.80 62.52 68.40 70.87 70.01 71.01 71.86 72.25 73.24 75.05 76.09 77.29 76.77 76.51 76.61 76.51 76.51 75.92 76.17 75.51 75.79 75.75 75.71 75.32 75.65 75.26 75.45 75.34 75.37 75.64 75.68 75.87 75.68 75.46 75.71 76.01
65.02 65.95 59.10 54.83 56.40 60.70 62.13 63.56 63.15 64.13 65.49 64.35 63.69 63.81 64.70 70.12 68.60 70.00 71.37 71.89 72.93 73.05 74.94 75.87 76.68 76.64 76.75 76.71 76.03 76.15 76.16 76.01 75.94 75.87 75.91 75.54 75.52 75.65 75.79 75.60 75.77 75.74 75.79 75.65 75.38 75.56 75.76 75.78 76.42
64.51 62.56 58.36 57.77 57.64 57.84 60.82 64.30 63.60 64.31 64.83 64.48 66.69 62.97 65.57 67.02 68.98 70.58 71.56 72.62 73.06 74.18 75.15 75.91 76.17 76.82 76.15 76.68 76.30 76.21 76.39 75.99 76.09 75.82 75.83 75.69 75.34 75.37 75.45 75.82 75.56 75.42 75.46 75.24 75.13 75.60 76.15 76.39 76.77
66.90 63.00 59.01 58.35 56.30 57.35 63.17 63.59 66.73 65.18 63.87 68.52 68.46 62.57 62.11 66.80 69.21 70.93 72.04 72.49 73.28 74.35 75.20 76.02 75.95 76.74 76.88 76.96 76.59 76.36 76.15 76.38 75.82 75.77 76.02 75.84 75.44 75.48 75.33 75.39 75.90 75.57 75.43 75.29 75.40 75.93 76.09 76.31 76.30
68.10 59.93 57.51 58.29 58.57 60.32 64.35 63.81 66.84 67.45 66.26 66.74 67.77 66.78 67.86 68.84 69.86 69.95 70.53 71.52 72.70 73.44 74.53 74.83 75.85 76.77 76.88 76.89 76.65 76.51 76.60 76.14 76.00 75.97 75.67 76.24 76.23 75.84 75.46 75.46 75.52 75.60 75.32 75.15 75.54 75.79 75.89 76.14 76.46
63.33 60.71 58.71 62.85 63.48 62.66 64.81 65.38 65.01 64.95 64.88 64.90 66.13 68.30 68.78 68.76 68.43 68.06 68.80 69.09 70.47 71.81 73.29 75.32 75.60 75.84 76.34 75.88 77.10 77.05 77.01 76.82 77.01 76.91 76.91 76.43 76.68 76.03 75.48 75.66 75.88 76.02 75.51 75.82 75.59 75.77 74.75 75.26 76.06
62.88 60.30 62.76 63.24 65.16 65.81 64.45 64.69 64.40 63.76 61.97 65.37 64.22 65.51 67.06 67.17 67.22 67.59 68.70 69.70 70.49 72.04 73.38 74.93 75.68 75.93 75.84 76.41 76.32 76.30 77.35 77.74 76.75 77.03 76.65 76.36 75.99 75.77 76.78 77.25 76.92 76.56 75.51 74.89 73.65 73.90 74.69 74.78 75.69
58.58 61.98 63.48 63.64 65.64 64.67 64.12 65.07 63.02 64.08 65.66 68.52 68.11 67.83 66.75 66.31 66.72 67.89 68.61 69.78 70.79 71.32 73.03 74.71 75.46 75.99 76.20 76.43 75.78 75.91 76.10 76.43 75.78 76.19 76.53 76.16 75.03 75.56 76.46 75.75 76.10 75.65 74.51 73.77 73.64 74.16 74.74 74.60 74.45
59.44 59.83 61.02 62.54 64.86 64.83 66.10 63.39 63.17 64.90 67.65 68.67 68.54 67.40 66.88 67.06 67.54 68.95 69.81 70.51 71.06 70.57 73.02 74.16 75.40 75.79 75.89 76.20 75.88 75.65 75.56 75.33 75.69 76.11 76.07 76.30 74.75 75.03 75.54 75.72 75.54 74.99 74.08 73.59 73.51 74.41 74.20 74.32 74.22
59.51 59.57 60.52 60.05 61.35 64.38 63.72 63.43 64.43 64.98 67.38 67.41 67.49 67.01 67.89 68.16 68.48 69.05 69.32 69.72 69.97 71.33 72.65 73.99 74.69 75.19 75.92 75.53 76.42 75.70 75.53 75.76 75.59 75.87 76.28 76.00 75.42 74.82 74.76 74.90 74.21 74.43 74.55 74.01 73.47 74.52 74.30 74.64 75.02
58.69 55.01 56.51 62.86 60.22 62.58 64.74 60.84 60.84 65.97 66.79 66.32 66.67 67.66 67.97 68.46 68.92 68.41 69.03 68.68 70.20 71.84 73.05 73.36 73.94 74.58 75.32 75.57 75.85 75.24 75.29 75.33 75.66 76.38 76.40 75.95 75.58 75.64 75.87 75.68 74.57 73.73 73.61 73.78 74.44 75.15 75.08 75.00 74.91
54.68 52.82 50.91 61.89 62.58 63.67 63.34 58.41 63.11 67.21 65.68 64.96 65.64 66.50 66.80 67.84 68.33 69.39 69.92 69.77 70.52 71.33 72.42 73.61 72.60 73.73 74.83 75.12 75.52 74.91 75.10 75.45 76.53 76.86 77.10 76.11 76.25 75.79 75.27 76.28 74.66 75.18 73.61 73.03 74.24 74.89 74.02 74.40 74.28
52.10 51.49 49.23 57.33 63.91 62.97 62.09 59.19 64.34 67.45 66.75 64.88 65.67 65.81 66.47 67.44 68.93 70.27 70.79 70.26 70.28 71.49 72.37 72.89 73.53 73.29 74.35 75.28 74.93 75.07 75.80 75.79 76.48 77.04 76.76 76.30 76.00 75.92 75.80 75.77 75.07 75.23 73.90 74.27 74.25 74.23 74.45 73.46 73.53
49.74 49.67 49.60 52.88 61.65 62.40 60.74 60.48 63.22 66.22 66.48 65.74 65.96 66.26 66.25 66.86 68.36 70.26 70.93 71.00 70.60 71.21 72.45 72.92 73.00 73.95 74.89 74.79 74.84 74.79 75.21 75.53 76.38 76.30 76.58 76.02 76.97 76.25 76.14 75.40 75.34 74.38 73.80 74.06 74.44 74.38 74.47 74.37 73.59
51.79 51.11 50.30 52.24 57.93 54.78 53.82 54.59 60.34 64.52 65.82 65.11 65.73 65.69 66.20 66.94 69.27 70.78 71.25 71.44 70.94 71.17 71.88 72.39 72.24 73.97 73.99 73.49 72.92 73.14 73.17 74.35 75.14 76.24 76.66 75.68 76.66 76.45 76.61 75.43 75.42 74.38 73.88 74.13 75.01 73.78 73.88 73.63 74.11
51.74 50.61 50.18 51.30 52.33 51.67 51.96 55.58 61.42 63.74 64.76 65.59 65.64 65.86 66.53 67.21 68.35 69.57 70.62 71.13 70.93 71.05 71.29 72.11 72.62 73.79 74.17 74.10 74.30 74.59 74.54 74.51 75.72 76.48 76.76 76.52 76.63 76.27 76.27 76.16 75.46 76.11 74.92 75.02 74.86 74.38 73.12 74.13 73.51
51.26 50.87 49.48 49.69 51.14 58.94 55.22 54.60 58.99 62.20 64.25 66.20 66.53 67.35 67.64 67.57 67.59 68.62 69.41 70.28 70.91 70.81 71.17 71.83 73.00 73.66 74.40 75.02 74.48 74.54 74.65 74.80 74.66 75.32 75.82 76.66 77.13 76.21 76.38 76.63 76.07 76.37 75.52 73.66 74.90 74.35 74.18 72.11 72.86
49.81 52.24 51.16 50.01 49.59 46.76 51.59 46.15 52.78 60.37 62.06 63.93 65.45 66.66 66.99 67.83 68.92 69.18 69.43 69.67 70.48 71.08 71.95 72.54 73.36 73.81 74.41 75.02 74.35 74.53 73.29 72.40 73.72 75.19 75.87 76.68 77.24 76.94 76.60 77.02 76.81 76.42 75.51 74.93 75.40 75.00 74.70 73.77 71.52
51.30 52.78 51.80 50.75 49.31 47.38 46.73 46.86 49.10 58.74 58.71 62.31 64.84 66.40 67.36 68.17 68.90 68.83 69.48 70.00 70.71 71.54 71.56 72.43 73.44 73.82 74.36 74.53 75.40 74.18 74.40 74.21 74.54 75.00 76.47 76.96 77.37 77.35 76.86 77.16 77.02 76.48 76.73 76.38 76.36 74.96 75.50 75.28 73.81
52.65 49.60 47.99 47.59 47.53 43.55 46.64 46.79 46.74 52.94 54.62 56.13 63.68 66.32 66.90 68.01 68.80 69.31 70.15 70.64 70.61 71.60 71.80 72.12 72.89 74.03 74.22 74.36 74.41 74.67 74.87 74.65 73.78 74.45 74.85 75.14 75.98 76.77 77.56 77.07 77.20 77.19 76.81 76.50 76.27 75.92 76.45 76.57 76.07
51.19 48.80 42.23 41.19 41.30 42.39 44.89 45.47 49.76 53.75 55.59 57.83 57.80 64.44 67.38 68.14 68.49 69.01 68.70 69.11 69.96 70.69 71.28 71.75 73.36 73.48 73.64 73.89 74.11 74.01 74.70 75.22 75.09 75.24 74.79 75.40 75.08 75.54 76.98 77.51 77.21 76.76 78.15 77.44 76.65 76.66 76.79 76.82 76.28
49.79 49.21 43.51 38.18 39.16 42.11 44.32 44.26 48.40 54.48 57.50 60.02 62.04 64.30 66.12 67.71 68.80 68.78 69.38 69.18 69.48 70.63 71.25 71.71 72.66 73.56 73.08 73.26 74.73 75.17 75.16 73.89 74.14 75.43 74.75 74.85 74.97 75.66 77.85 77.49 77.69 77.58 77.35 77.50 77.55 75.99 76.50 77.21 76.60
44.65 44.70 46.27 43.10 41.75 43.25 44.72 46.42 51.07 53.61 55.09 57.84 58.85 61.57 62.41 65.00 67.45 68.80 69.58 69.83 69.51 70.60 71.66 72.25 72.97 73.69 73.60 73.19 74.74 74.76 74.32 74.48 74.37 75.81 75.79 74.97 76.37 76.05 77.24 77.28 77.44 77.69 77.32 77.40 77.56 75.63 76.70 76.93 77.04
46.05 45.64 43.48 45.14 39.09 38.93 41.54 43.74 44.79 47.59 50.31 55.32 57.23 59.37 63.07 64.70 65.96 66.55 69.03 69.99 69.93 70.60 71.56 72.04 73.10 73.17 74.14 73.55 73.77 73.53 73.69 74.20 74.60 74.77 75.24 75.77 76.04 76.62 76.57 77.07 77.37 77.49 77.40 77.20 77.31 76.63 77.12 76.50 76.38
44.47 43.66 42.44 45.04 42.85 41.37 39.56 41.93 46.37 47.97 51.24 54.61 57.06 58.85 62.10 64.80 66.08 66.86 67.26 69.62 70.74 70.42 71.13 71.44 71.92 72.37 72.54 73.06 74.35 74.59 73.66 73.39 73.66 73.25 74.41 75.49 76.55 76.88 76.65 77.07 77.19 77.12 77.24 77.65 77.08 76.84 76.74 76.17 76.58
43.49 41.28 41.57 43.58 40.83 41.67 44.76 41.54 49.24 51.34 53.92 55.27 55.75 57.84 60.54 64.31 66.62 67.35 65.86 66.79 70.45 70.76 70.09 70.90 71.46 71.65 72.18 73.72 74.41 73.39 74.05 73.47 72.95 72.95 73.68 74.71 75.29 76.76 76.93 77.02 76.84 76.99 77.10 77.52 77.14 76.48 75.86 75.96 75.94
MSLP
1012.43 1012.70 1012.87 1012.98 1013.46 1012.74 1012.30 1012.10 1011.75 1011.10 1010.73 1010.68 1011.27 1011.65 1012.36 1012.54 1013.41 1014.20 1014.56 1014.80 1015.26 1016.03 1016.64 1016.90 1017.26 1017.52 1017.69 1017.86 1018.04 1018.26 1018.41 1018.54 1018.64 1018.69 1018.81 1018.92 1019.01 1019.13 1019.28 1019.32 1019.36 1019.36 1019.36 1019.37 1019.33 1019.31 1019.30 1019.37 1019.42
1012.36 1012.85 1012.80 1012.58 1012.78 1012.13 1012.25 1011.94 1011.37 1011.03 1010.56 1011.03 1011.29 1011.72 1012.33 1013.29 1014.02 1014.42 1014.73 1015.05 1015.41 1015.97 1016.45 1016.81 1017.49 1017.68 1017.90 1018.14 1018.33 1018.46 1018.63 1018.77 1018.86 1018.95 1018.99 1019.06 1019.15 1019.26 1019.40 1019.54 1019.58 1019.57 1019.62 1019.74 1019.76 1019.64 1019.61 1019.68 1019.71
1012.39 1012.40 1012.33 1012.30 1012.52 1012.25 1012.30 1012.26 1011.62 1010.91 1010.84 1010.93 1011.60 1012.17 1012.94 1014.01 1014.51 1014.37 1014.56 1015.10 1015.66 1016.20 1016.61 1017.07 1017.66 1017.85 1018.06 1018.30 1018.43 1018.56 1018.68 1018.82 1018.86 1018.92 1019.05 1019.14 1019.26 1019.38 1019.51 1019.70 1019.87 1019.88 1019.97 1020.11 1020.05 1019.96 1019.99 1020.09 1020.17
1012.21 1012.38 1012.63 1012.30 1012.27 1012.59 1012.70 1012.04 1012.24 1011.63 1011.48 1011.64 1012.16 1012.99 1013.96 1014.32 1014.54 1014.71 1015.03 1015.41 1015.88 1016.38 1016.79 1017.31 1017.65 1017.98 1018.21 1018.35 1018.62 1018.71 1018.74 1018.96 1019.10 1019.22 1019.34 1019.40 1019.47 1019.61 1019.76 1020.03 1020.11 1020.18 1020.33 1020.37 1020.33 1020.25 1020.28 1020.27 1020.36
1012.10 1012.02 1011.85 1011.98 1012.20 1012.28 1012.52 1012.75 1012.61 1012.14 1011.70 1012.09 1012.27 1013.51 1014.34 1014.93 1014.90 1015.22 1015.37 1015.71 1015.93 1016.46 1016.87 1017.23 1017.74 1018.06 1018.32 1018.51 1018.72 1018.89 1019.04 1019.34 1019.44 1019.46 1019.46 1019.60 1019.76 1019.81 1020.00 1020.20 1020.37 1020.46 1020.62 1020.69 1020.67 1020.60 1020.58 1020.62 1020.60
1011.86 1011.77 1011.28 1011.52 1011.80 1012.13 1012.49 1012.58 1012.52 1012.16 1011.96 1012.46 1012.87 1013.29 1014.69 1015.25 1015.35 1015.52 1015.68 1015.85 1016.12 1016.53 1016.85 1017.33 1017.89 1018.14 1018.36 1018.63 1018.84 1019.06 1019.27 1019.51 1019.62 1019.70 1019.71 1019.82 1019.99 1020.01 1020.24 1020.42 1020.42 1020.60 1020.74 1020.94 1021.02 1020.96 1020.86 1020.76 1020.89
1011.30 1011.28 1010.96 1011.14 1011.60 1011.58 1011.82 1012.24 1012.18 1012.16 1011.98 1012.16 1012.46 1013.17 1014.95 1015.33 1015.53 1015.83 1016.03 1016.21 1016.38 1016.80 1017.14 1017.49 1017.77 1018.11 1018.52 1018.69 1018.97 1019.24 1019.51 1019.76 1019.82 1019.97 1020.02 1020.12 1020.34 1020.33 1020.52 1020.59 1020.62 1020.76 1020.93 1021.11 1021.21 1021.23 1021.18 1021.23 1021.24
1011.20 1011.20 1010.42 1010.72 1010.90 1011.09 1011.64 1012.13 1012.45 1012.25 1012.27 1012.26 1012.08 1012.72 1014.19 1014.98 1015.54 1016.04 1016.38 1016.57 1016.78 1017.02 1017.41 1017.74 1018.00 1018.19 1018.53 1018.77 1019.10 1019.41 1019.65 1019.84 1019.98 1020.17 1020.28 1020.37 1020.57 1020.62 1020.95 1021.00 1020.98 1021.04 1021.16 1021.27 1021.42 1021.48 1021.49 1021.44 1021.66
1011.05 1010.91 1010.17 1010.08 1010.12 1010.24 1011.10 1011.54 1012.24 1012.50 1012.10 1012.16 1012.25 1012.44 1013.49 1014.92 1015.59 1016.05 1016.44 1016.86 1017.16 1017.40 1017.56 1017.68 1017.95 1018.32 1018.61 1018.89 1019.22 1019.60 1019.84 1020.16 1020.24 1020.33 1020.54 1020.66 1020.66 1020.80 1020.88 1021.20 1021.26 1021.32 1021.41 1021.52 1021.59 1021.75 1021.78 1021.88 1021.99
1010.76 1010.16 1009.75 1009.60 1009.61 1009.78 1010.30 1010.93 1011.71 1012.22 1012.28 1012.58 1012.74 1013.42 1014.45 1015.03 1015.59 1015.80 1016.28 1016.83 1017.16 1017.43 1017.71 1017.79 1017.96 1018.31 1018.66 1018.86 1019.38 1019.62 1019.78 1020.06 1020.34 1020.54 1020.65 1020.77 1020.93 1021.01 1021.06 1021.34 1021.46 1021.52 1021.64 1021.82 1021.92 1022.06 1022.16 1022.08 1022.12
1010.54 1009.79 1009.51 1009.27 1009.23 1009.52 1010.12 1010.80 1011.41 1011.62 1011.97 1012.04 1012.67 1013.61 1014.63 1015.04 1015.72 1015.92 1016.36 1016.74 1017.04 1017.55 1017.81 1017.98 1018.23 1018.57 1018.67 1019.02 1019.32 1019.56 1020.10 1020.30 1020.37 1020.68 1020.88 1021.00 1021.08 1021.15 1021.49 1021.65 1021.80 1021.79 1022.04 1021.79 1022.07 1022.06 1022.00 1022.32 1022.38
1010.34 1009.66 1009.32 1009.08 1009.17 1009.45 1009.88 1010.64 1011.22 1011.38 1011.46 1011.59 1012.67 1013.55 1014.38 1014.84 1015.42 1015.90 1016.29 1016.76 1017.18 1017.70 1017.90 1018.14 1018.41 1018.68 1018.94 1019.16 1019.39 1019.69 1020.01 1020.30 1020.32 1020.69 1021.02 1021.12 1021.09 1021.38 1021.70 1021.67 1021.91 1022.04 1022.18 1022.32 1022.44 1022.31 1022.42 1022.44 1022.58
1010.16 1009.53 1009.11 1008.78 1009.06 1009.40 1009.81 1010.51 1010.95 1011.48 1011.66 1012.27 1012.98 1013.75 1014.40 1014.92 1015.36 1015.87 1016.46 1016.86 1017.25 1017.65 1017.96 1018.26 1018.48 1018.76 1019.07 1019.36 1019.62 1019.90 1020.17 1020.28 1020.45 1020.71 1021.02 1021.12 1021.22 1021.42 1021.64 1021.90 1022.02 1022.19 1022.37 1022.38 1022.53 1022.50 1022.40 1022.46 1022.53
1009.47 1009.40 1008.83 1008.64 1008.78 1009.21 1009.73 1010.55 1010.96 1011.64 1012.12 1012.73 1013.07 1013.61 1014.06 1014.60 1015.15 1015.83 1016.44 1016.80 1017.12 1017.51 1017.76 1018.26 1018.60 1018.86 1019.12 1019.31 1019.76 1020.03 1020.31 1020.53 1020.59 1020.73 1020.99 1021.26 1021.29 1021.55 1021.68 1021.90 1022.10 1022.32 1022.54 1022.60 1022.65 1022.58 1022.55 1022.62 1022.67
1009.42 1009.04 1008.55 1008.77 1008.68 1009.20 1009.74 1010.31 1010.69 1011.38 1012.35 1012.87 1013.10 1013.57 1014.03 1014.57 1015.22 1015.48 1015.91 1016.38 1016.79 1017.31 1017.70 1018.18 1018.53 1018.83 1019.16 1019.35 1019.72 1020.02 1020.23 1020.46 1020.55 1020.62 1021.03 1021.28 1021.42 1021.68 1021.84 1022.01 1022.12 1022.32 1022.73 1022.88 1022.88 1022.81 1022.80 1022.64 1022.67
1009.04 1008.86 1008.31 1008.89 1008.89 1009.21 1009.44 1009.31 1010.15 1011.18 1011.88 1012.72 1013.07 1013.48 1013.97 1014.43 1014.94 1015.37 1015.82 1016.30 1016.68 1017.07 1017.62 1018.12 1018.36 1018.77 1019.11 1019.34 1019.65 1019.89 1020.18 1020.34 1020.62 1020.68 1021.04 1021.22 1021.41 1021.63 1021.83 1021.80 1022.09 1022.42 1022.65 1022.78 1022.75 1022.75 1022.74 1022.78 1022.68
1008.99 1008.17 1008.36 1008.78 1008.79 1008.93 1009.47 1009.18 1010.27 1011.18 1011.83 1012.64 1013.00 1013.36 1013.82 1014.23 1014.71 1015.12 1015.54 1016.05 1016.42 1017.01 1017.52 1017.93 1018.41 1018.72 1019.08 1019.41 1019.61 1019.90 1020.18 1020.41 1020.60 1020.80 1021.01 1021.09 1021.34 1021.43 1021.64 1021.73 1022.08 1022.55 1022.50 1022.51 1022.60 1022.75 1022.70 1022.74 1022.69
1008.32 1008.21 1008.35 1008.23 1008.67 1008.90 1009.13 1009.31 1010.41 1011.10 1011.57 1012.22 1012.70 1013.17 1013.50 1013.91 1014.19 1014.68 1015.20 1015.76 1016.28 1016.87 1017.44 1017.99 1018.27 1018.77 1019.06 1019.37 1019.70 1019.84 1019.99 1020.13 1020.40 1020.53 1020.74 1020.98 1021.23 1021.44 1021.56 1021.90 1022.12 1022.40 1022.28 1022.48 1022.56 1022.78 1022.80 1022.73 1022.84
1008.60 1008.27 1008.18 1008.46 1008.60 1008.63 1008.75 1009.06 1009.63 1010.52 1011.23 1011.80 1012.30 1012.65 1012.93 1013.28 1013.75 1014.26 1014.82 1015.51 1016.09 1016.67 1017.33 1017.72 1018.05 1018.54 1019.02 1019.34 1019.50 1019.67 1019.67 1019.89 1020.12 1020.34 1020.64 1021.00 1020.98 1021.33 1021.61 1021.55 1022.00 1022.22 1022.24 1022.41 1022.60 1022.82 1022.83 1022.82 1023.04
1008.83 1008.45 1008.40 1008.60 1008.74 1008.80 1008.68 1009.12 1009.76 1010.26 1010.65 1011.13 1011.69 1012.07 1012.29 1012.70 1013.22 1013.95 1014.45 1015.18 1015.75 1016.14 1016.82 1017.55 1017.94 1018.23 1018.78 1019.01 1019.39 1019.49 1019.59 1019.68 1019.76 1020.05 1020.55 1020.88 1021.08 1021.20 1021.56 1021.53 1021.57 1021.99 1022.14 1022.52 1022.65 1022.75 1022.70 1022.89 1023.17
1008.80 1008.60 1008.60 1008.42 1008.71 1008.87 1008.73 1009.23 1009.70 1010.31 1010.68 1011.11 1011.36 1011.56 1011.79 1012.03 1012.46 1013.23 1014.01 1014.68 1015.30 1015.91 1016.42 1017.00 1017.55 1017.96 1018.37 1018.82 1019.24 1019.61 1019.78 1019.82 1019.86 1020.08 1020.41 1020.59 1020.85 1021.09 1021.40 1021.58 1021.62 1021.88 1022.06 1022.16 1022.45 1022.62 1022.77 1022.59 1023.13
1008.48 1008.86 1008.81 1008.73 1008.62 1008.27 1008.94 1008.42 1009.32 1009.88 1010.23 1010.59 1010.95 1011.12 1011.13 1011.48 1012.06 1012.53 1013.24 1014.02 1014.64 1015.20 1015.94 1016.63 1017.37 1017.91 1018.29 1018.62 1018.83 1019.14 1019.24 1019.36 1019.40 1019.63 1020.01 1020.22 1020.66 1020.88 1021.12 1021.36 1021.66 1021.83 1021.75 1022.13 1022.23 1022.34 1022.60 1022.76 1022.63
1008.50 1008.78 1008.88 1008.90 1008.83 1008.74 1008.89 1008.79 1009.12 1009.84 1009.75 1010.12 1010.50 1010.58 1010.61 1010.84 1011.17 1011.67 1012.33 1013.05 1013.82 1014.58 1015.28 1015.98 1016.74 1017.61 1017.97 1018.40 1018.52 1018.85 1019.02 1019.14 1019.40 1019.66 1019.92 1020.24 1020.58 1020.78 1020.96 1021.22 1021.43 1021.70 1021.79 1021.94 1022.17 1022.48 1022.60 1022.66 1022.51
1008.79 1009.08 1009.40 1009.60 1009.23 1008.82 1008.88 1008.92 1009.54 1010.01 1010.51 1010.01 1009.65 1010.02 1010.28 1010.49 1010.87 1011.26 1011.80 1012.48 1013.22 1013.95 1014.66 1015.50 1016.34 1016.94 1017.65 1018.04 1018.47 1018.69 1018.74 1019.05 1019.30 1019.53 1019.56 1019.80 1020.19 1020.39 1020.80 1021.00 1021.26 1021.58 1021.72 1021.85 1021.98 1022.28 1022.42 1022.55 1022.65
1008.79 1008.73 1008.99 1009.33 1009.23 1008.66 1009.60 1009.60 1010.72 1011.21 1011.26 1010.56 1009.63 1009.40 1009.81 1010.19 1010.58 1011.01 1011.37 1011.93 1012.64 1013.36 1014.16 1014.86 1015.67 1016.32 1017.06 1017.60 1018.06 1018.45 1018.68 1018.90 1019.11 1019.35 1019.36 1019.50 1019.70 1020.08 1020.53 1020.75 1020.93 1021.06 1021.57 1021.84 1022.00 1022.18 1022.30 1022.41 1022.46
1008.82 1008.63 1008.11 1008.08 1008.68 1008.98 1010.09 1009.96 1011.60 1012.00 1011.80 1011.16 1010.40 1010.09 1009.89 1010.01 1010.52 1010.82 1011.11 1011.54 1012.11 1012.86 1013.68 1014.34 1014.88 1015.50 1016.31 1016.89 1017.36 1018.06 1018.47 1018.68 1018.87 1019.07 1019.07 1019.30 1019.38 1019.50 1019.86 1020.31 1020.55 1020.89 1021.05 1021.47 1021.82 1021.83 1021.99 1022.08 1022.30
1009.93 1009.58 1009.58 1009.04 1009.86 1009.16 1009.88 1011.13 1011.79 1012.32 1012.12 1011.90 1011.69 1011.33 1011.12 1010.71 1010.62 1010.63 1010.95 1011.20 1011.48 1011.95 1012.65 1013.50 1014.29 1014.79 1015.45 1016.08 1016.66 1017.34 1018.08 1018.32 1018.43 1018.85 1019.12 1019.14 1019.33 1019.25 1019.57 1019.94 1020.22 1020.62 1020.91 1021.13 1021.46 1021.62 1021.92 1022.10 1022.34
1010.46 1010.82 1010.29 1009.46 1009.21 1009.02 1010.43 1011.60 1012.38 1013.25 1013.43 1013.22 1012.77 1012.50 1012.13 1011.72 1011.41 1010.90 1010.41 1010.49 1010.78 1011.16 1011.86 1012.70 1013.36 1014.00 1014.52 1015.18 1015.94 1016.56 1017.27 1017.74 1018.06 1018.58 1018.84 1018.93 1018.98 1019.11 1019.32 1019.74 1019.92 1020.26 1020.65 1020.99 1021.20 1021.40 1021.56 1021.92 1022.06
1011.96 1011.50 1011.19 1010.40 1010.24 1009.36 1010.39 1012.55 1014.13 1014.62 1014.90 1014.70 1014.35 1013.85 1013.03 1012.39 1011.94 1011.41 1010.78 1010.26 1010.14 1010.87 1011.35 1011.92 1012.61 1013.19 1013.96 1014.70 1015.26 1015.97 1016.48 1017.16 1017.66 1017.98 1018.30 1018.62 1018.79 1018.85 1019.13 1019.44 1019.75 1020.02 1020.34 1020.56 1021.08 1021.26 1021.45 1021.65 1021.91
1013.68 1013.21 1012.48 1010.87 1011.23 1011.27 1011.06 1013.66 1015.16 1015.42 1015.50 1015.60 1015.38 1015.04 1014.37 1013.53 1012.64 1011.78 1010.83 1010.43 1010.15 1010.34 1010.90 1011.31 1011.89 1012.62 1013.03 1013.50 1014.33 1015.16 1015.88 1016.50 1017.17 1017.36 1017.66 1018.12 1018.42 1018.54 1018.74 1019.04 1019.43 1019.78 1019.95 1020.28 1020.68 1020.89 1020.98 1021.32 1021.47
Wind_Speed
10 8 3 3 2 2 1 2 1 3 7 3 15 7 9 6 1 3 8 12 19 16 13 13 10 11 9 8 9 10 9 9 9 9 9 9 8 7 7 8 8 8 10 10 10 11 12 12 12
8 5 3 2 1 2 3 3 7 4 8 18 9 14 5 5 3 7 15 18 20 16 14 12 10 10 9 10 9 9 9 8 8 8 7 7 7 6 6 7 7 8 9 10 9 9 11 11 12
9 2 2 1 3 1 3 2 9 2 18 14 6 5 4 3 5 16 12 21 19 15 12 11 12 11 10 10 9 9 8 8 8 8 7 8 6 7 8 7 8 8 9 9 9 9 10 9 12
4 1 2 1 3 3 3 6 10 13 9 6 9 7 5 3 14 7 20 20 18 15 13 12 12 12 10 9 9 8 7 7 7 7 6 8 8 7 9 7 9 9 8 10 9 9 9 8 9
1 1 2 2 2 1 4 3 4 1 3 4 3 4 6 4 8 18 19 18 18 15 12 12 11 12 10 9 8 8 8 7 8 6 7 7 7 9 7 10 10 10 9 10 9 8 6 5 7
1 1 0 2 3 4 2 2 1 3 6 7 8 8 5 9 16 17 17 17 15 15 12 11 12 11 10 9 9 7 7 7 8 6 8 7 6 8 10 10 12 12 11 10 8 8 6 7 10
2 1 3 4 6 2 2 1 1 2 8 6 11 6 6 11 17 16 15 15 14 13 11 10 11 10 9 8 8 7 7 7 7 6 8 8 7 9 8 9 9 12 11 10 9 8 8 10 11
1 1 1 2 4 4 7 4 4 3 5 10 9 7 11 13 19 16 14 14 13 12 11 10 9 8 7 8 9 8 7 8 7 7 7 8 9 10 10 10 9 12 10 10 9 9 10 10 11
2 1 4 3 4 2 10 6 5 2 7 1 3 9 18 21 20 17 15 13 11 10 11 10 10 9 8 7 8 8 8 7 7 7 8 7 5 8 8 9 10 10 9 9 10 9 9 10 11
3 3 2 0 2 3 7 10 10 6 8 6 14 18 22 23 20 19 17 15 14 13 12 10 10 9 8 6 8 7 6 5 5 5 6 4 5 6 7 8 9 10 10 9 9 9 8 5 6
3 2 2 1 1 6 7 9 6 10 6 8 17 23 23 23 20 18 16 15 14 12 10 11 10 9 8 6 5 4 4 3 4 5 5 5 4 5 4 4 4 5 6 4 3 5 3 5 3
4 7 4 2 2 3 6 10 6 2 3 8 20 24 23 23 20 18 16 15 14 12 11 11 10 9 8 6 5 5 4 3 4 4 4 4 3 4 4 4 4 4 3 4 3 3 3 3 4
8 3 4 6 5 1 7 6 4 7 10 16 22 23 21 20 19 16 14 14 13 12 12 12 10 9 8 6 5 4 5 4 4 3 4 3 4 4 4 4 3 3 3 3 3 3 3 4 4
6 9 10 6 8 6 6 5 5 9 16 18 23 22 21 20 20 16 15 14 14 13 13 12 10 9 8 7 6 5 4 4 3 3 3 3 3 4 4 4 4 4 2 2 3 2 3 2 3
2 4 2 5 8 5 8 5 4 15 18 18 20 19 19 19 18 18 17 16 15 12 12 12 11 9 9 8 7 5 4 5 3 2 4 4 3 2 2 4 3 3 3 4 2 2 3 1 2
4 3 3 4 9 5 7 3 11 17 19 19 19 18 18 19 19 16 15 13 13 12 12 11 10 10 10 8 7 5 5 4 3 2 2 4 4 3 4 4 4 4 4 3 3 2 3 2 2
1 6 4 5 2 6 6 3 8 12 14 18 17 18 17 17 17 15 14 14 14 13 13 12 12 11 11 8 7 6 6 4 3 3 3 4 4 4 2 2 4 5 4 3 3 3 1 3 3
9 6 3 6 9 4 9 8 6 11 13 15 17 17 18 17 18 16 15 13 13 13 12 12 11 11 10 6 5 5 5 4 3 4 4 5 3 5 3 3 5 5 4 4 3 3 3 2 3
6 6 8 3 3 4 7 7 6 12 12 14 17 18 18 19 18 16 15 13 12 12 12 13 14 12 9 7 6 6 6 5 5 5 5 5 4 7 5 4 5 5 4 3 4 4 4 3 2
7 7 5 2 3 4 1 1 2 7 12 15 18 18 19 18 17 16 15 14 15 15 14 14 14 13 11 8 6 3 4 4 3 4 5 5 5 4 5 5 4 5 4 5 5 3 3 2 2
5 8 5 3 1 3 1 4 2 2 6 11 16 16 18 18 19 17 16 16 15 15 15 15 15 14 12 10 6 3 4 3 4 6 5 6 6 6 5 5 4 4 5 4 5 5 3 3 2
10 7 5 3 2 4 3 5 2 1 8 11 15 18 18 19 18 18 18 18 18 18 16 15 14 13 12 12 9 9 7 6 5 6 6 6 6 6 5 5 5 6 4 5 5 4 2 3 3
3 7 7 3 3 3 4 5 4 2 4 10 13 16 20 20 20 21 22 20 18 18 17 17 15 14 13 12 11 9 9 6 5 6 8 6 6 7 6 5 5 5 4 4 4 4 4 3 2
11 8 7 4 3 6 4 5 6 7 13 14 9 16 17 19 20 19 19 18 17 17 18 16 16 15 14 13 13 13 11 9 6 7 7 7 6 6 6 6 6 4 4 5 5 4 4 2 2
7 9 6 7 6 5 1 4 7 9 14 15 9 10 17 17 19 17 18 18 18 18 18 17 16 16 15 15 15 15 13 11 10 9 7 8 7 6 8 8 6 5 6 6 5 5 4 5 3
14 12 5 8 9 8 2 9 6 8 13 16 16 7 6 15 15 17 18 19 19 19 18 19 17 17 17 17 16 13 13 10 9 10 7 7 7 8 8 8 7 7 5 4 6 5 4 4 3
6 8 2 6 1 8 6 6 6 13 17 19 18 15 13 6 10 17 18 18 19 20 20 20 18 16 17 19 14 14 13 13 11 10 9 8 7 6 8 8 8 7 6 5 5 5 5 4 4
3 5 7 2 8 10 6 5 4 12 15 16 18 17 15 13 10 9 15 19 18 21 21 21 19 19 19 19 16 15 15 14 13 11 11 10 9 8 8 9 9 8 7 7 7 5 5 5 5
1 4 4 2 3 5 8 5 5 7 9 12 14 16 17 16 13 11 12 15 18 19 20 21 20 20 18 18 16 14 15 15 14 13 13 11 10 9 9 9 9 9 9 9 8 8 7 7 6
6 3 1 7 7 2 1 7 7 7 10 11 13 15 15 16 16 15 12 8 13 16 18 20 19 19 20 17 16 17 15 14 15 14 15 13 12 10 10 9 10 10 10 10 10 10 8 9 9
Wind_Direction
153 145 157 173 191 209 198 64 258 96 150 152 142 155 160 130 160 84 139 154 147 149 152 154 145 135 123 128 117 110 105 107 97 98 104 102 98 99 101 94 90 95 87 86 89 86 91 92 90
149 150 196 147 246 167 89 3 22 292 130 139 119 131 116 109 75 128 141 159 148 147 152 151 138 139 126 130 132 124 110 104 98 96 95 87 91 88 110 102 102 103 88 88 90 93 95 98 95
159 259 225 159 127 176 99 45 13 90 140 145 109 67 62 82 95 146 131 152 148 146 148 144 143 143 135 138 143 133 119 116 121 111 107 98 94 95 80 102 107 102 101 98 87 94 99 103 98
155 161 112 221 114 98 74 16 16 122 112 74 97 67 84 337 148 159 146 150 147 146 151 143 148 148 142 145 133 127 132 127 119 110 109 99 101 97 107 106 102 100 99 97 97 99 95 86 91
221 220 123 120 112 90 117 122 8 16 99 59 59 92 82 55 123 141 147 153 149 147 150 147 152 148 150 151 142 145 136 141 123 122 125 103 105 115 95 106 114 117 103 97 94 90 78 79 96
163 289 158 107 126 93 128 125 22 189 135 130 111 110 81 122 139 146 151 152 150 146 149 148 144 152 156 144 149 144 144 138 129 144 108 104 104 103 113 114 108 106 101 96 93 79 60 94 99
329 297 9 86 109 96 142 110 91 68 132 127 141 97 108 147 146 148 154 147 150 145 143 149 152 150 156 156 144 146 144 133 134 119 114 108 95 97 103 107 111 105 106 104 98 84 79 102 97
302 294 34 54 143 127 156 128 80 58 104 133 150 157 160 158 150 148 152 147 151 149 148 147 155 154 153 157 152 146 138 141 130 118 105 96 99 97 93 103 109 108 112 111 104 89 83 102 100
234 256 123 136 169 146 146 150 100 273 138 188 138 143 136 151 149 149 150 150 153 158 156 159 159 151 150 150 142 148 142 131 132 117 101 98 94 99 113 96 109 108 112 113 103 92 89 107 105
231 238 135 205 187 197 183 158 136 163 129 87 99 115 139 149 156 157 160 160 168 162 166 160 160 155 152 147 142 141 131 128 124 115 108 103 100 102 103 107 103 104 112 103 91 81 74 90 101
199 254 203 23 115 132 148 138 149 153 161 170 153 144 151 154 162 164 168 170 170 170 170 168 161 159 157 137 143 142 120 129 129 116 120 114 114 116 109 101 90 112 100 111 97 113 83 80 73
224 259 266 348 154 140 142 129 143 153 70 154 150 150 153 161 166 170 174 173 169 174 182 169 166 161 154 150 158 150 141 149 147 124 118 137 131 115 103 113 112 110 91 94 67 87 82 106 98
235 250 238 239 232 230 143 128 123 119 121 134 145 151 157 166 171 173 180 177 174 176 187 176 171 168 158 160 144 157 152 163 140 151 115 132 128 125 126 119 128 117 117 115 101 80 77 98 68
206 246 266 289 222 193 183 142 176 148 138 146 154 162 165 172 176 171 179 184 182 181 185 174 183 174 170 163 162 167 165 157 174 153 115 133 142 133 140 137 135 130 116 125 98 95 88 80 26
249 271 174 38 188 172 164 160 196 146 154 159 166 168 171 174 176 182 182 186 187 187 180 179 187 181 182 174 168 176 174 168 173 179 153 157 190 150 215 144 158 147 136 146 129 115 117 89 98
206 238 186 86 161 157 213 99 168 159 157 168 172 173 173 175 185 189 186 191 187 186 191 180 188 188 190 183 174 176 177 190 184 204 192 187 216 214 212 147 161 148 161 168 159 153 139 87 99
171 184 145 139 141 152 221 53 148 160 167 171 177 177 179 181 189 193 187 191 191 189 191 188 188 191 198 192 182 184 182 202 195 202 198 185 193 216 178 145 143 161 159 166 159 146 100 113 84
164 162 125 147 191 223 200 244 141 164 176 181 181 179 189 190 197 195 196 189 192 191 194 202 187 195 192 195 185 187 194 207 201 200 196 200 183 187 198 152 154 164 153 148 143 140 114 85 67
137 143 129 112 155 235 233 273 226 175 176 179 186 185 186 194 199 201 201 191 188 194 198 201 194 193 187 188 193 202 207 199 205 193 184 190 230 166 180 173 158 170 171 149 152 138 129 118 100
154 150 151 126 119 243 10 34 8 199 195 185 185 188 191 190 191 203 204 196 193 196 199 203 204 192 198 190 201 224 204 190 177 168 170 188 210 179 173 185 167 162 162 172 174 161 143 106 135
183 180 175 140 135 122 337 159 250 174 207 193 195 196 196 195 192 197 198 199 199 200 202 203 206 197 199 198 183 157 160 140 167 165 171 180 184 192 195 174 178 184 194 176 177 179 186 148 150
199 190 167 156 203 176 326 195 127 215 205 198 196 201 201 200 201 201 200 201 202 203 207 206 206 206 203 190 192 197 200 198 202 177 168 169 179 181 182 182 174 173 179 173 177 176 181 209 161
189 165 185 173 166 236 139 240 86 26 249 222 208 208 206 205 201 204 203 204 206 203 203 207 204 205 205 199 200 199 213 212 195 181 169 169 174 183 168 188 184 180 187 188 179 174 178 182 180
143 108 80 89 171 202 143 258 56 12 339 314 254 210 206 207 207 211 208 204 210 204 204 206 204 205 205 201 203 206 206 204 202 197 192 182 181 174 184 188 184 187 200 198 195 194 180 180 174
178 172 149 175 193 184 176 207 51 13 6 348 292 239 213 207 204 206 206 205 209 206 206 203 201 204 202 203 206 212 216 210 206 198 202 184 181 186 184 193 187 195 183 194 193 195 197 205 180
189 202 209 185 186 158 146 165 74 26 21 25 33 12 261 224 212 211 207 205 207 208 207 205 198 203 202 203 205 211 214 218 221 213 207 208 207 198 178 190 193 196 207 189 178 197 205 191 195
144 201 42 114 85 180 144 107 194 22 24 24 25 27 25 341 246 225 221 213 209 206 203 203 204 203 201 206 202 204 213 216 219 224 215 211 214 208 187 190 197 192 197 203 191 210 203 211 217
352 108 172 208 165 177 131 121 64 8 9 12 17 16 9 2 345 289 243 226 216 213 206 201 202 203 203 203 201 203 210 212 212 217 222 217 213 212 198 197 201 201 199 198 203 209 213 217 215
32 123 64 99 322 182 164 117 40 33 30 17 19 14 17 10 3 337 282 244 232 216 211 207 206 202 203 207 207 207 206 212 210 214 216 220 219 207 206 204 208 210 203 205 206 215 211 221 219
46 77 331 221 177 61 346 113 54 48 41 33 25 19 14 12 9 6 1 261 235 218 215 211 208 208 212 205 201 207 208 204 214 214 215 215 221 215 212 203 205 213 212 205 215 220 217 217 216